Regional Weather Roundup
Issued by NWS Burlington, VT

Home | Current Version | Previous Version | Text Only | Print | Product List | Glossary On
Versions: 1 2 3 4 5 6 7 8 9 10 11 12 13 14 15 16 17 18 19 20 21 22 23 24 25 26 27 28 29 30 31 32 33 34 35 36 37 38 39 40 41 42 43 44 45 46 47 48 49 50
000
ASUS41 KBTV 231010
RWRBTV
VERMONT REGIONAL WEATHER ROUNDUP
NATIONAL WEATHER SERVICE BURLINGTON VT
600 AM EDT THU MAR 23 2017

NOTE: "FAIR" INDICATES FEW OR NO CLOUDS BELOW 12,000 FEET WITH NO
SIGNIFICANT WEATHER AND/OR OBSTRUCTIONS TO VISIBILITY.

* THESE REPORTS ARE NOT UNDER NWS QUALITY CONTROL AND/OR DO NOT
  REPORT WEATHER SUCH AS PRECIPITATION AND FOG.

VTZ001>019-231100-
_____VERMONT_____


CITY           SKY/WX    TMP DP  RH WIND       PRES   REMARKS
BURLINGTON     CLEAR      4  -1  80 CALM      30.47R
MONTPELIER     CLEAR      8  -6  52 CALM      30.41R
MORRISVILLE    CLEAR     -4  -9  79 SW5       30.43R WCI -15
ST. JOHNSBURY*   N/A      4  -2  76 MISG      30.38R
LYNDONVILLE*   FAIR       8  -6  52 W7        30.36R WCI  -4
MIDDLEBURY*    FAIR       7  -2  65 CALM      30.46R
RUTLAND*       CLEAR      2  -3  80 CALM      30.44R
SPRINGFIELD    CLEAR     13  -7  40 CALM      30.42R
HIGHGATE*      FAIR      -2  -6  82 CALM      30.48R
NEWPORT*       FAIR       8  -7  51 W5        30.38R WCI   0
BENNINGTON     CLEAR     10  -6  48 SW3       30.44R
SUTTON*          N/A      3 N/A N/A MISG        N/A

_____LAKE CHAMPLAIN_____


CITY           SKY/WX    TMP DP  RH WIND       PRES   REMARKS
BURTON ISLAND*   N/A     18   7  62 NW7         N/A  WCI   8
COLCHESTER RF*   N/A     21   3  45 W16         N/A  WCI   7
DIAMOND ISL*     N/A     21  -4  33 W9G17       N/A  WCI  11

$$

NYZ007-026>031-035-052-083-087-231100-
_____NORTHERN NEW YORK_____


CITY           SKY/WX    TMP DP  RH WIND       PRES   REMARKS
PLATTSBURGH    CLEAR     13  -6  42 CALM      30.48R
SARANAC LAKE   CLEAR    -18 -22  82 CALM      30.38R
MASSENA        CLEAR      6  -2  69 SW5       30.54R WCI  -3
WATERTOWN      PTCLDY     3   1  91 CALM      30.55R
FT DRUM        CLEAR      6  -2  69 CALM      30.50R
ALBANY         CLEAR     14   0  53 NW7       30.52R WCI   4
GLENS FALLS    CLEAR     16  -4  41 NW7       30.50R WCI   6

$$
NHZ002-005-011-231100-
_____NEW HAMPSHIRE_____


CITY           SKY/WX    TMP DP  RH WIND       PRES   REMARKS
LEBANON        CLEAR     14  -4  44 NW8       30.41R WCI   3
KEENE          CLEAR     15  -3  44 N9        30.42R WCI   3
MT WASHINGTON  ICE FOG  -17 -17 100 NW72        N/A  VSB 1/8 WCI -60
PLYMOUTH       FAIR      13  -4  45 NW6       30.38R WCI   4
WHITEFIELD     CLEAR      2  -9  60 CALM      30.35R

$$

_____REGIONAL QUEBEC LOCATIONS_____


CITY           SKY/WX    TMP DP  RH WIND       PRES   REMARKS
MONTREAL       MOCLDY    14  -4  44 W10       30.49R WCI   1
QUEBEC CITY    PTCLDY     3  -9  55 W7        30.37R WCI  -9
SHERBROOKE     CLEAR      3  -8  60 VRB2      30.37R

_____REGIONAL ONTARIO LOCATIONS_____


CITY           SKY/WX    TMP DP  RH WIND       PRES   REMARKS
OTTAWA         CLEAR     10   0  61 SW8       30.50R WCI  -1

______KEY______
VSB  - VISIBILITY IN MILES
WCI  - WIND CHILL INDEX
HX   - HEAT INDEX
$$
NNNN




USA.gov is the U.S. government's official web portal to all federal, state and local government web resources and services.